Location: Bogis-Bossey
(46.3500°N, 6.1667°E)
Time: 17:52:33
(UTC+00:00)

CZ-4B R/B - Pass Details

Date: 17 August 2022
Orbit: 351 x 398 km, 97.6° (Epoch: 01 October)

Event Time Altitude Azimuth Distance (km) Brightness Sun altitude
Rises 19:36:13 0° 30° (NNE) 2,376 5.1 -9.3°
Reaches altitude 10° 19:38:48 10° 53° (NE) 1,509 3.8 -9.7°
Maximum altitude 19:40:52 16° 93° (E) 1,198 3.0 -10.0°
Enters shadow 19:41:36 15° 109° (ESE) 1,238 3.0 -10.1°
